DLH884 EDDF-EETN

Flight info

Callsign DLH884
Flight time 2h 9m
Altitude 33000
Route MARUN3W/25C MARUN Y150 TOLGI DCT GARLU DCT BANUB Z131 GOSOT DCT EVONA DCT ETHUV DCT ADBIB DCT SULUN
Aircraft A321/M-SDE3FGHIRWY/LB1

Departure

Time 2026-05-06 12:59
Airport Frankfurt Main Airport (EDDF)

Arrival

Time 2026-05-06 15:09
Airport Lennart Meri Tallinn Airport (EETN)
Time Latitude Longitude Altitude Speed Heading
2026-05-06 12:20 50.04406 8.56220 363 ft 0 kts 160°
2026-05-06 12:48 50.04420 8.56213 361 ft 4 kts 160°
2026-05-06 12:49 50.04445 8.56202 362 ft 4 kts 181°
2026-05-06 12:49 50.04469 8.56211 364 ft 4 kts 221°
2026-05-06 12:49 50.04480 8.56233 361 ft 1 kts 249°
2026-05-06 12:49 50.04481 8.56237 361 ft 0 kts 249°
2026-05-06 12:51 50.04480 8.56232 364 ft 2 kts 250°
2026-05-06 12:52 50.04471 8.56194 357 ft 6 kts 251°
2026-05-06 12:52 50.04454 8.56119 363 ft 9 kts 249°
2026-05-06 12:52 50.04416 8.56031 356 ft 11 kts 204°
2026-05-06 12:52 50.04337 8.56056 359 ft 13 kts 160°
2026-05-06 12:53 50.04278 8.56177 362 ft 16 kts 117°
2026-05-06 12:53 50.04175 8.56274 358 ft 19 kts 157°
2026-05-06 12:53 50.04136 8.56359 356 ft 2 kts 86°
2026-05-06 12:53 50.04138 8.56368 355 ft 2 kts 70°
2026-05-06 12:54 50.04157 8.56415 357 ft 8 kts 57°
2026-05-06 12:54 50.04179 8.56493 363 ft 8 kts 70°
2026-05-06 12:54 50.04198 8.56575 363 ft 8 kts 70°
2026-05-06 12:54 50.04220 8.56665 364 ft 10 kts 69°
2026-05-06 12:55 50.04249 8.56787 363 ft 13 kts 69°
2026-05-06 12:55 50.04286 8.56942 363 ft 17 kts 69°
2026-05-06 12:55 50.04327 8.57113 364 ft 16 kts 70°
2026-05-06 12:55 50.04363 8.57278 363 ft 16 kts 69°
2026-05-06 12:56 50.04405 8.57443 363 ft 17 kts 69°
2026-05-06 12:56 50.04445 8.57607 369 ft 15 kts 70°
2026-05-06 12:56 50.04483 8.57767 368 ft 19 kts 69°
2026-05-06 12:56 50.04541 8.58013 365 ft 27 kts 70°
2026-05-06 12:57 50.04606 8.58290 369 ft 25 kts 69°
2026-05-06 12:57 50.04655 8.58504 370 ft 12 kts 83°
2026-05-06 12:57 50.04610 8.58590 369 ft 11 kts 154°
2026-05-06 12:57 50.04541 8.58630 371 ft 10 kts 160°
2026-05-06 12:58 50.04490 8.58597 370 ft 9 kts 245°
2026-05-06 12:58 50.04453 8.58452 372 ft 33 kts 248°
2026-05-06 12:58 50.04290 8.57767 363 ft 99 kts 249°
2026-05-06 12:58 50.03982 8.56480 357 ft 153 kts 249°
2026-05-06 12:59 50.03570 8.54728 549 ft 179 kts 248°
2026-05-06 12:59 50.03133 8.52910 1384 ft 176 kts 247°
2026-05-06 12:59 50.02700 8.51124 1930 ft 182 kts 247°
2026-05-06 12:59 50.01954 8.49468 2186 ft 194 kts 220°
2026-05-06 13:00 50.00826 8.48348 2714 ft 192 kts 205°
2026-05-06 13:00 49.99511 8.47900 3046 ft 203 kts 184°
2026-05-06 13:00 49.98114 8.47681 3521 ft 201 kts 190°
2026-05-06 13:00 49.96720 8.47347 4042 ft 199 kts 192°
2026-05-06 13:01 49.95374 8.46871 4496 ft 202 kts 201°
2026-05-06 13:01 49.94052 8.46200 5042 ft 200 kts 200°
2026-05-06 13:01 49.92659 8.45506 5243 ft 217 kts 203°
2026-05-06 13:01 49.91401 8.44101 5340 ft 234 kts 232°
2026-05-06 13:02 49.90714 8.41843 5787 ft 238 kts 256°
2026-05-06 13:02 49.90700 8.39266 6266 ft 244 kts 281°
2026-05-06 13:02 49.91508 8.36880 6717 ft 254 kts 311°
2026-05-06 13:02 49.92989 8.35342 7302 ft 262 kts 333°
2026-05-06 13:03 49.94705 8.34211 7551 ft 279 kts 334°
2026-05-06 13:03 49.96517 8.33043 8065 ft 285 kts 334°
2026-05-06 13:03 49.98362 8.31860 8634 ft 288 kts 334°
2026-05-06 13:03 50.00219 8.30664 9258 ft 290 kts 334°
2026-05-06 13:04 50.02093 8.29466 9841 ft 293 kts 338°
2026-05-06 13:04 50.04099 8.28704 10234 ft 306 kts 351°
2026-05-06 13:04 50.06295 8.28734 10357 ft 328 kts
2026-05-06 13:04 50.08560 8.29677 10494 ft 347 kts 17°
2026-05-06 13:05 50.10899 8.30924 10623 ft 362 kts 17°
2026-05-06 13:05 50.13315 8.32206 10975 ft 370 kts 17°
2026-05-06 13:05 50.15769 8.33501 11427 ft 374 kts 17°
2026-05-06 13:05 50.18245 8.34801 11945 ft 377 kts 17°
2026-05-06 13:06 50.20740 8.36106 12454 ft 380 kts 17°
2026-05-06 13:06 50.23250 8.37423 12979 ft 382 kts 17°
2026-05-06 13:06 50.25779 8.38754 13484 ft 385 kts 17°
2026-05-06 13:06 50.28328 8.40096 13939 ft 388 kts 17°
2026-05-06 13:07 50.30894 8.41455 14372 ft 390 kts 18°
2026-05-06 13:07 50.33475 8.42846 14794 ft 393 kts 18°
2026-05-06 13:07 50.36066 8.44254 15219 ft 396 kts 18°
2026-05-06 13:07 50.38684 8.45684 15633 ft 400 kts 18°
2026-05-06 13:08 50.41316 8.47131 16053 ft 402 kts 18°
2026-05-06 13:08 50.43971 8.48596 16486 ft 406 kts 18°
2026-05-06 13:08 50.46643 8.50073 16919 ft 408 kts 18°
2026-05-06 13:08 50.49340 8.51518 17317 ft 411 kts 17°
2026-05-06 13:09 50.52075 8.52875 17716 ft 414 kts 16°
2026-05-06 13:09 50.54842 8.54185 18091 ft 416 kts 15°
2026-05-06 13:09 50.57629 8.55475 18414 ft 419 kts 14°
2026-05-06 13:09 50.60441 8.56770 18723 ft 423 kts 14°
2026-05-06 13:10 50.63279 8.58088 19077 ft 425 kts 15°
2026-05-06 13:10 50.66121 8.59432 19419 ft 428 kts 15°
2026-05-06 13:10 50.68972 8.60801 19762 ft 430 kts 15°
2026-05-06 13:10 50.71842 8.62195 20107 ft 432 kts 15°
2026-05-06 13:11 50.74719 8.63601 20439 ft 435 kts 15°
2026-05-06 13:11 50.77610 8.65076 20783 ft 438 kts 19°
2026-05-06 13:11 50.80365 8.67161 21107 ft 442 kts 30°
2026-05-06 13:11 50.82888 8.69969 21438 ft 445 kts 40°
2026-05-06 13:12 50.85088 8.73432 21764 ft 448 kts 50°
2026-05-06 13:12 50.86994 8.77338 22087 ft 450 kts 53°
2026-05-06 13:12 50.88889 8.81302 22405 ft 452 kts 53°
2026-05-06 13:12 50.90796 8.85288 22739 ft 455 kts 53°
2026-05-06 13:13 50.92708 8.89285 23045 ft 457 kts 53°
2026-05-06 13:13 50.94633 8.93312 23344 ft 460 kts 53°
2026-05-06 13:13 50.96567 8.97359 23604 ft 462 kts 53°
2026-05-06 13:13 50.98513 9.01438 23902 ft 463 kts 53°
2026-05-06 13:14 50.99793 9.04128 24116 ft 463 kts 53°
2026-05-06 13:14 51.01738 9.08223 24443 ft 464 kts 53°
2026-05-06 13:14 51.03682 9.12331 24738 ft 465 kts 53°
2026-05-06 13:14 51.05623 9.16446 25016 ft 466 kts 53°
2026-05-06 13:15 51.07619 9.20511 25282 ft 468 kts 48°
2026-05-06 13:15 51.09958 9.24114 25544 ft 469 kts 38°
2026-05-06 13:15 51.12633 9.27065 25799 ft 469 kts 28°
2026-05-06 13:15 51.15578 9.29303 26050 ft 469 kts 19°
2026-05-06 13:16 51.18699 9.30774 26302 ft 468 kts 10°
2026-05-06 13:16 51.21894 9.31870 26603 ft 468 kts 11°
2026-05-06 13:16 51.25070 9.32966 26987 ft 467 kts 11°
2026-05-06 13:16 51.28251 9.34067 27274 ft 468 kts 11°
2026-05-06 13:17 51.31441 9.35173 27521 ft 469 kts 11°
2026-05-06 13:17 51.34633 9.36284 27763 ft 470 kts 11°
2026-05-06 13:17 51.37825 9.37399 27984 ft 472 kts 11°
2026-05-06 13:17 51.41041 9.38524 28212 ft 473 kts 11°
2026-05-06 13:18 51.44264 9.39652 28451 ft 474 kts 12°
2026-05-06 13:18 51.47465 9.40774 28830 ft 470 kts 12°
2026-05-06 13:18 51.50653 9.41896 29212 ft 467 kts 12°
2026-05-06 13:18 51.53823 9.43014 29520 ft 466 kts 12°
2026-05-06 13:19 51.56985 9.44128 29820 ft 465 kts 12°
2026-05-06 13:19 51.60145 9.45238 30050 ft 464 kts 12°
2026-05-06 13:19 51.63304 9.46347 30258 ft 464 kts 12°
2026-05-06 13:19 51.66457 9.47454 30469 ft 465 kts 11°
2026-05-06 13:20 51.69610 9.48564 30754 ft 462 kts 11°
2026-05-06 13:20 51.72752 9.49676 30993 ft 461 kts 11°
2026-05-06 13:20 51.75887 9.50791 31172 ft 462 kts 11°
2026-05-06 13:20 51.79004 9.52042 31332 ft 463 kts 17°
2026-05-06 13:21 51.81987 9.53983 31507 ft 465 kts 26°
2026-05-06 13:21 51.84779 9.56652 31639 ft 466 kts 35°
2026-05-06 13:21 51.87295 9.59979 31792 ft 467 kts 44°
2026-05-06 13:21 51.89643 9.63613 31945 ft 468 kts 44°
2026-05-06 13:22 51.91999 9.67271 32097 ft 469 kts 44°
2026-05-06 13:22 51.94337 9.70958 32270 ft 470 kts 44°
2026-05-06 13:22 51.96669 9.74682 32406 ft 471 kts 45°
2026-05-06 13:22 51.98998 9.78423 32580 ft 471 kts 45°
2026-05-06 13:23 52.01329 9.82180 32749 ft 472 kts 45°
2026-05-06 13:23 52.06001 9.89730 32816 ft 476 kts 45°
2026-05-06 13:24 52.10708 9.97306 32824 ft 476 kts 45°
2026-05-06 13:24 52.15401 10.04868 32819 ft 475 kts 45°
2026-05-06 13:25 52.20062 10.12409 32813 ft 474 kts 45°
2026-05-06 13:25 52.24735 10.20026 32817 ft 475 kts 45°
2026-05-06 13:26 52.29403 10.27652 32820 ft 475 kts 45°
2026-05-06 13:26 52.34075 10.35278 32834 ft 474 kts 46°
2026-05-06 13:27 52.38729 10.42903 32834 ft 472 kts 46°
2026-05-06 13:27 52.43354 10.50518 32812 ft 472 kts 46°
2026-05-06 13:28 52.47986 10.58171 32793 ft 473 kts 46°
2026-05-06 13:28 52.52608 10.65836 32795 ft 475 kts 46°
2026-05-06 13:29 52.57246 10.73550 32832 ft 473 kts 46°
2026-05-06 13:29 52.61865 10.81250 32843 ft 472 kts 46°
2026-05-06 13:30 52.66470 10.88952 32846 ft 471 kts 46°
2026-05-06 13:30 52.71058 10.96647 32843 ft 471 kts 46°
2026-05-06 13:31 52.75641 11.04361 32847 ft 470 kts 47°
2026-05-06 13:31 52.80214 11.12082 32846 ft 469 kts 47°
2026-05-06 13:32 52.84780 11.19819 32831 ft 469 kts 46°
2026-05-06 13:32 52.89340 11.27561 32826 ft 470 kts 46°
2026-05-06 13:33 52.93860 11.35267 32825 ft 470 kts 47°
2026-05-06 13:33 52.98420 11.43064 32828 ft 470 kts 47°
2026-05-06 13:34 53.02964 11.50856 32832 ft 470 kts 47°
2026-05-06 13:34 53.07516 11.58696 32839 ft 470 kts 47°
2026-05-06 13:35 53.12064 11.66556 32839 ft 470 kts 47°
2026-05-06 13:35 53.16601 11.74405 32854 ft 471 kts 47°
2026-05-06 13:36 53.21109 11.82243 32852 ft 470 kts 47°
2026-05-06 13:36 53.25617 11.90123 32837 ft 469 kts 47°
2026-05-06 13:37 53.30131 11.98006 32839 ft 469 kts 47°
2026-05-06 13:37 53.34638 12.05920 32846 ft 470 kts 47°
2026-05-06 13:38 53.39137 12.13847 32850 ft 470 kts 47°
2026-05-06 13:38 53.43635 12.21799 32862 ft 469 kts 47°
2026-05-06 13:39 53.48122 12.29763 32867 ft 469 kts 47°
2026-05-06 13:39 53.52605 12.37727 32872 ft 468 kts 47°
2026-05-06 13:40 53.57079 12.45692 32871 ft 469 kts 47°
2026-05-06 13:40 53.61540 12.53693 32881 ft 468 kts 48°
2026-05-06 13:41 53.65985 12.61692 32858 ft 467 kts 47°
2026-05-06 13:41 53.70435 12.69707 32858 ft 468 kts 47°
2026-05-06 13:42 53.74880 12.77729 32857 ft 468 kts 47°
2026-05-06 13:42 53.79317 12.85777 32863 ft 468 kts 48°
2026-05-06 13:43 53.83750 12.93851 32877 ft 468 kts 48°
2026-05-06 13:43 53.88171 13.01923 32884 ft 467 kts 48°
2026-05-06 13:44 53.92592 13.10020 32885 ft 467 kts 48°
2026-05-06 13:44 53.96996 13.18132 32886 ft 467 kts 48°
2026-05-06 13:45 54.01398 13.26252 32885 ft 467 kts 48°
2026-05-06 13:45 54.08000 13.38462 32895 ft 468 kts 47°
2026-05-06 13:46 54.12391 13.46646 32889 ft 468 kts 48°
2026-05-06 13:46 54.16748 13.54793 32888 ft 467 kts 48°
2026-05-06 13:47 54.21128 13.62987 32894 ft 467 kts 48°
2026-05-06 13:47 54.25512 13.71211 32900 ft 468 kts 48°
2026-05-06 13:48 54.29889 13.79465 32909 ft 468 kts 49°
2026-05-06 13:48 54.34246 13.87714 32909 ft 467 kts 49°
2026-05-06 13:49 54.38602 13.95999 32913 ft 467 kts 49°
2026-05-06 13:49 54.42948 14.04282 32884 ft 467 kts 48°
2026-05-06 13:50 54.47305 14.12595 32901 ft 468 kts 49°
2026-05-06 13:50 54.51646 14.20948 32906 ft 468 kts 49°
2026-05-06 13:51 54.55978 14.29299 32913 ft 468 kts 49°
2026-05-06 13:51 54.60320 14.37670 32910 ft 468 kts 49°
2026-05-06 13:52 54.64658 14.46047 32917 ft 468 kts 49°
2026-05-06 13:52 54.68949 14.54395 32925 ft 467 kts 49°
2026-05-06 13:53 54.73282 14.62869 32929 ft 467 kts 49°
2026-05-06 13:53 54.77548 14.71238 32923 ft 466 kts 49°
2026-05-06 13:54 54.81838 14.79671 32924 ft 466 kts 49°
2026-05-06 13:54 54.85429 14.86756 32915 ft 467 kts 49°
2026-05-06 13:55 54.89718 14.95235 32918 ft 468 kts 49°
2026-05-06 13:55 54.94011 15.03760 32919 ft 468 kts 49°
2026-05-06 13:56 54.98301 15.12298 32930 ft 468 kts 49°
2026-05-06 13:56 55.02583 15.20854 32931 ft 468 kts 49°
2026-05-06 13:57 55.06860 15.29452 33096 ft 470 kts 50°
2026-05-06 13:57 55.08976 15.33718 33261 ft 470 kts 50°
2026-05-06 13:57 55.11118 15.38036 33444 ft 471 kts 50°
2026-05-06 13:58 55.13268 15.42371 33630 ft 470 kts 49°
2026-05-06 13:58 55.15407 15.46691 33822 ft 470 kts 50°
2026-05-06 13:58 55.17552 15.51026 33995 ft 470 kts 50°
2026-05-06 13:58 55.19686 15.55350 34179 ft 470 kts 50°
2026-05-06 13:59 55.21821 15.59692 34343 ft 470 kts 50°
2026-05-06 13:59 55.23953 15.64041 34463 ft 472 kts 50°
2026-05-06 13:59 55.26093 15.68413 34579 ft 472 kts 50°
2026-05-06 13:59 55.28234 15.72789 34702 ft 473 kts 50°
2026-05-06 14:00 55.30370 15.77166 34873 ft 473 kts 50°
2026-05-06 14:00 55.32514 15.81565 34918 ft 473 kts 51°
2026-05-06 14:00 55.36788 15.90357 34931 ft 473 kts 51°
2026-05-06 14:01 55.41055 15.99164 34921 ft 473 kts 51°
2026-05-06 14:01 55.45317 16.07993 34923 ft 473 kts 51°
2026-05-06 14:02 55.49548 16.16781 34922 ft 473 kts 51°
2026-05-06 14:02 55.53793 16.25648 34930 ft 473 kts 51°
2026-05-06 14:03 55.58034 16.34552 34942 ft 473 kts 51°
2026-05-06 14:03 55.62269 16.43461 34937 ft 473 kts 51°
2026-05-06 14:04 55.66508 16.52383 34944 ft 473 kts 51°
2026-05-06 14:04 55.70742 16.61344 34938 ft 473 kts 51°
2026-05-06 14:05 55.74961 16.70323 34950 ft 473 kts 52°
2026-05-06 14:05 55.79169 16.79330 34954 ft 473 kts 52°
2026-05-06 14:06 55.83373 16.88339 34953 ft 473 kts 52°
2026-05-06 14:06 55.87574 16.97371 34951 ft 473 kts 52°
2026-05-06 14:07 55.91770 17.06420 34946 ft 473 kts 52°
2026-05-06 14:07 55.95962 17.15493 34948 ft 474 kts 52°
2026-05-06 14:08 56.00158 17.24600 34933 ft 475 kts 52°
2026-05-06 14:08 56.04320 17.33682 34938 ft 474 kts 53°
2026-05-06 14:09 56.08513 17.42886 34956 ft 474 kts 53°
2026-05-06 14:09 56.12674 17.52056 34961 ft 474 kts 53°
2026-05-06 14:10 56.16805 17.61188 34958 ft 475 kts 53°
2026-05-06 14:10 56.20965 17.70395 34953 ft 475 kts 53°
2026-05-06 14:11 56.25129 17.79636 34966 ft 476 kts 53°
2026-05-06 14:11 56.29284 17.88923 34969 ft 476 kts 53°
2026-05-06 14:12 56.33430 17.98223 34965 ft 476 kts 53°
2026-05-06 14:12 56.37583 18.07561 34962 ft 477 kts 54°
2026-05-06 14:13 56.41732 18.16934 34953 ft 478 kts 54°
2026-05-06 14:13 56.45874 18.26326 34975 ft 477 kts 54°
2026-05-06 14:14 56.50009 18.35737 34971 ft 477 kts 54°
2026-05-06 14:14 56.54125 18.45161 34972 ft 477 kts 54°
2026-05-06 14:15 56.58236 18.54616 34956 ft 478 kts 55°
2026-05-06 14:15 56.62369 18.64129 34947 ft 480 kts 55°
2026-05-06 14:16 56.66468 18.73602 34953 ft 481 kts 55°
2026-05-06 14:16 56.70600 18.83197 34956 ft 482 kts 55°
2026-05-06 14:17 56.74723 18.92809 34969 ft 482 kts 55°
2026-05-06 14:17 56.78850 19.02473 34924 ft 484 kts 55°
2026-05-06 14:18 56.82985 19.12180 34934 ft 485 kts 55°
2026-05-06 14:18 56.87118 19.21917 34943 ft 485 kts 55°
2026-05-06 14:19 56.91249 19.31709 34963 ft 486 kts 55°
2026-05-06 14:19 56.95359 19.41514 34972 ft 486 kts 55°
2026-05-06 14:20 56.99490 19.51366 34963 ft 488 kts 55°
2026-05-06 14:20 57.03626 19.61279 34955 ft 490 kts 55°
2026-05-06 14:21 57.07752 19.71244 34963 ft 491 kts 55°
2026-05-06 14:21 57.11881 19.81261 34956 ft 492 kts 55°
2026-05-06 14:22 57.16017 19.91297 34975 ft 492 kts 55°
2026-05-06 14:22 57.20247 20.01228 34976 ft 493 kts 53°
2026-05-06 14:23 57.24632 20.10954 34985 ft 493 kts 52°
2026-05-06 14:23 57.29005 20.20688 34987 ft 492 kts 53°
2026-05-06 14:24 57.33285 20.30482 34989 ft 492 kts 53°
2026-05-06 14:24 57.37566 20.40374 35007 ft 492 kts 53°
2026-05-06 14:25 57.41869 20.50265 34982 ft 493 kts 53°
2026-05-06 14:25 57.46180 20.60200 34967 ft 494 kts 53°
2026-05-06 14:26 57.50483 20.70173 34978 ft 495 kts 53°
2026-05-06 14:26 57.54774 20.80194 34990 ft 495 kts 53°
2026-05-06 14:27 57.59057 20.90235 34998 ft 495 kts 53°
2026-05-06 14:27 57.63348 21.00331 34971 ft 497 kts 53°
2026-05-06 14:28 57.67651 21.10479 34972 ft 499 kts 53°
2026-05-06 14:28 57.71953 21.20671 34986 ft 499 kts 53°
2026-05-06 14:29 57.76256 21.30905 34991 ft 500 kts 53°
2026-05-06 14:29 57.80547 21.41162 35016 ft 501 kts 53°
2026-05-06 14:30 57.84842 21.51506 34997 ft 503 kts 53°
2026-05-06 14:30 57.89110 21.61829 34997 ft 504 kts 53°
2026-05-06 14:31 57.93438 21.72301 34996 ft 504 kts 53°
2026-05-06 14:31 57.97742 21.82767 35005 ft 505 kts 53°
2026-05-06 14:32 58.02004 21.93192 35026 ft 506 kts 53°
2026-05-06 14:32 58.06303 22.03737 34995 ft 507 kts 53°
2026-05-06 14:33 58.10629 22.14297 34999 ft 508 kts 51°
2026-05-06 14:33 58.15214 22.24473 35011 ft 508 kts 48°
2026-05-06 14:34 58.19958 22.34421 35016 ft 509 kts 48°
2026-05-06 14:34 58.24663 22.44462 34739 ft 510 kts 49°
2026-05-06 14:35 58.26212 22.47841 34019 ft 517 kts 49°
2026-05-06 14:35 58.29380 22.54843 32538 ft 526 kts 50°
2026-05-06 14:35 58.30958 22.58356 31903 ft 528 kts 50°
2026-05-06 14:35 58.34123 22.65405 31217 ft 519 kts 50°
2026-05-06 14:36 58.36458 22.70607 30618 ft 515 kts 50°
2026-05-06 14:36 58.38779 22.75771 30019 ft 512 kts 49°
2026-05-06 14:36 58.41096 22.80910 29380 ft 508 kts 49°
2026-05-06 14:36 58.43391 22.86003 28794 ft 504 kts 49°
2026-05-06 14:37 58.44899 22.89360 28393 ft 502 kts 49°
2026-05-06 14:37 58.47160 22.94408 27820 ft 497 kts 49°
2026-05-06 14:37 58.49391 22.99406 27238 ft 493 kts 49°
2026-05-06 14:37 58.51605 23.04389 26675 ft 489 kts 49°
2026-05-06 14:38 58.53796 23.09334 26102 ft 485 kts 49°
2026-05-06 14:38 58.55969 23.14243 25568 ft 480 kts 49°
2026-05-06 14:38 58.58114 23.19093 25081 ft 475 kts 48°
2026-05-06 14:38 58.60253 23.23873 24644 ft 469 kts 48°
2026-05-06 14:39 58.62381 23.28572 24199 ft 463 kts 47°
2026-05-06 14:39 58.64491 23.33213 23775 ft 459 kts 47°
2026-05-06 14:39 58.66552 23.37757 23305 ft 455 kts 47°
2026-05-06 14:39 58.68638 23.42372 22859 ft 448 kts 47°
2026-05-06 14:40 58.70661 23.46864 22450 ft 442 kts 47°
2026-05-06 14:40 58.72657 23.51316 22032 ft 436 kts 47°
2026-05-06 14:40 58.74620 23.55720 21624 ft 430 kts 47°
2026-05-06 14:40 58.76547 23.60063 21195 ft 425 kts 47°
2026-05-06 14:41 58.78459 23.64372 20770 ft 420 kts 47°
2026-05-06 14:41 58.80351 23.68631 20355 ft 415 kts 47°
2026-05-06 14:41 58.82192 23.72775 19923 ft 410 kts 46°
2026-05-06 14:41 58.84059 23.76988 19501 ft 406 kts 46°
2026-05-06 14:42 58.85881 23.81120 19079 ft 403 kts 46°
2026-05-06 14:42 58.87694 23.85233 18630 ft 400 kts 46°
2026-05-06 14:42 58.89466 23.89259 18214 ft 396 kts 46°
2026-05-06 14:42 58.91241 23.93304 17761 ft 392 kts 46°
2026-05-06 14:43 58.92991 23.97304 17333 ft 387 kts 47°
2026-05-06 14:43 58.94740 24.01312 16918 ft 382 kts 47°
2026-05-06 14:43 58.96422 24.05166 16493 ft 377 kts 47°
2026-05-06 14:43 58.97938 24.09296 16062 ft 375 kts 57°
2026-05-06 14:44 58.99298 24.13666 15638 ft 371 kts 57°
2026-05-06 14:44 59.00623 24.17924 15234 ft 367 kts 57°
2026-05-06 14:44 59.01919 24.22085 14825 ft 363 kts 57°
2026-05-06 14:45 59.04503 24.30422 14015 ft 357 kts 57°
2026-05-06 14:45 59.05774 24.34531 13562 ft 354 kts 57°
2026-05-06 14:45 59.07032 24.38603 13148 ft 349 kts 57°
2026-05-06 14:45 59.08274 24.42627 12750 ft 345 kts 57°
2026-05-06 14:46 59.09493 24.46590 12358 ft 340 kts 57°
2026-05-06 14:46 59.10698 24.50524 11943 ft 336 kts 57°
2026-05-06 14:46 59.11890 24.54415 11553 ft 332 kts 57°
2026-05-06 14:46 59.13066 24.58251 11163 ft 328 kts 57°
2026-05-06 14:47 59.14225 24.62038 10781 ft 325 kts 58°
2026-05-06 14:47 59.15377 24.65805 10410 ft 321 kts 58°
2026-05-06 14:47 59.16496 24.69479 10271 ft 310 kts 58°
2026-05-06 14:47 59.17581 24.73056 9989 ft 304 kts 58°
2026-05-06 14:48 59.18645 24.76566 9798 ft 298 kts 58°
2026-05-06 14:48 59.19700 24.80044 9646 ft 298 kts 58°
2026-05-06 14:48 59.20753 24.83519 9258 ft 296 kts 58°
2026-05-06 14:48 59.21795 24.86970 8853 ft 294 kts 58°
2026-05-06 14:49 59.22830 24.90402 8437 ft 292 kts 58°
2026-05-06 14:49 59.23857 24.93814 8071 ft 289 kts 59°
2026-05-06 14:49 59.24862 24.97153 7988 ft 284 kts 59°
2026-05-06 14:49 59.25866 25.00492 7528 ft 286 kts 59°
2026-05-06 14:50 59.26874 25.03847 7147 ft 285 kts 59°
2026-05-06 14:50 59.27870 25.07167 6829 ft 281 kts 60°
2026-05-06 14:50 59.28849 25.10446 6491 ft 278 kts 60°
2026-05-06 14:50 59.29818 25.13697 6140 ft 275 kts 60°
2026-05-06 14:51 59.30767 25.16874 5914 ft 262 kts 60°
2026-05-06 14:51 59.31692 25.19843 5591 ft 252 kts 52°
2026-05-06 14:51 59.32949 25.22170 5186 ft 247 kts 33°
2026-05-06 14:51 59.34468 25.23488 4889 ft 241 kts 14°
2026-05-06 14:52 59.36119 25.23828 4576 ft 239 kts
2026-05-06 14:52 59.37778 25.23863 4256 ft 237 kts
2026-05-06 14:52 59.39410 25.23729 3946 ft 234 kts 345°
2026-05-06 14:52 59.40723 25.21995 3702 ft 229 kts 305°
2026-05-06 14:53 59.41182 25.19087 3451 ft 224 kts 275°
2026-05-06 14:53 59.41207 25.16079 3224 ft 216 kts 271°
2026-05-06 14:53 59.41204 25.13187 2948 ft 208 kts 272°
2026-05-06 14:53 59.41212 25.10370 2595 ft 204 kts 272°
2026-05-06 14:54 59.41232 25.07603 2292 ft 200 kts 272°
2026-05-06 14:54 59.41241 25.04923 2037 ft 193 kts 271°
2026-05-06 14:54 59.41251 25.02327 1766 ft 188 kts 272°
2026-05-06 14:54 59.41265 24.99824 1591 ft 175 kts 272°
2026-05-06 14:55 59.41275 24.97522 1289 ft 163 kts 272°
2026-05-06 14:55 59.41282 24.95364 1027 ft 156 kts 272°
2026-05-06 14:55 59.41291 24.93264 842 ft 153 kts 273°
2026-05-06 14:55 59.41299 24.91174 639 ft 153 kts 273°
2026-05-06 14:56 59.41306 24.89102 428 ft 150 kts 272°
2026-05-06 14:56 59.41312 24.87086 227 ft 143 kts 273°
2026-05-06 14:56 59.41338 24.85238 183 ft 135 kts 269°
2026-05-06 14:56 59.41380 24.83272 797 ft 148 kts 271°
2026-05-06 14:57 59.41443 24.81222 1641 ft 152 kts 276°
2026-05-06 14:57 59.41482 24.79034 1919 ft 170 kts 274°
2026-05-06 14:57 59.41490 24.76549 2079 ft 194 kts 272°
2026-05-06 14:57 59.41355 24.73760 2325 ft 218 kts 252°
2026-05-06 14:58 59.40431 24.71242 2589 ft 240 kts 216°
2026-05-06 14:58 59.38880 24.69978 2956 ft 245 kts 186°
2026-05-06 14:58 59.37237 24.70373 3007 ft 238 kts 154°
2026-05-06 14:58 59.35975 24.72353 3009 ft 233 kts 121°
2026-05-06 14:59 59.35443 24.75281 3010 ft 230 kts 95°
2026-05-06 14:59 59.35284 24.78404 3013 ft 231 kts 96°
2026-05-06 14:59 59.35053 24.81653 3014 ft 250 kts 96°
2026-05-06 14:59 59.34790 24.85017 3008 ft 254 kts 97°
2026-05-06 15:00 59.34514 24.88475 3006 ft 254 kts 97°
2026-05-06 15:00 59.34246 24.91858 3005 ft 254 kts 98°
2026-05-06 15:00 59.33968 24.95285 3009 ft 255 kts 101°
2026-05-06 15:00 59.33554 24.98664 3006 ft 255 kts 102°
2026-05-06 15:01 59.33095 25.02030 3004 ft 255 kts 103°
2026-05-06 15:01 59.32643 25.05384 3007 ft 255 kts 104°
2026-05-06 15:01 59.32191 25.08748 3009 ft 256 kts 103°
2026-05-06 15:01 59.31741 25.12108 3008 ft 255 kts 104°
2026-05-06 15:02 59.31285 25.15477 3003 ft 255 kts 103°
2026-05-06 15:02 59.30826 25.18832 2999 ft 254 kts 103°
2026-05-06 15:02 59.30412 25.22101 2993 ft 239 kts 96°
2026-05-06 15:02 59.30627 25.25154 3002 ft 223 kts 62°
2026-05-06 15:03 59.31641 25.27378 2996 ft 221 kts 29°
2026-05-06 15:03 59.33091 25.28345 3001 ft 223 kts 13°
2026-05-06 15:03 59.34613 25.28918 2999 ft 223 kts 11°
2026-05-06 15:03 59.36147 25.28934 3011 ft 219 kts 346°
2026-05-06 15:04 59.37381 25.27379 2995 ft 211 kts 310°
2026-05-06 15:04 59.38187 25.24983 3004 ft 210 kts 302°
2026-05-06 15:04 59.38905 25.22512 2967 ft 206 kts 300°
2026-05-06 15:04 59.39599 25.20072 2639 ft 204 kts 301°
2026-05-06 15:05 59.40279 25.17669 2507 ft 205 kts 300°
2026-05-06 15:05 59.40956 25.15207 2501 ft 206 kts 295°
2026-05-06 15:05 59.41214 25.12426 2512 ft 212 kts 273°
2026-05-06 15:05 59.41225 25.09540 2445 ft 213 kts 272°
2026-05-06 15:06 59.41234 25.06667 2221 ft 208 kts 272°
2026-05-06 15:06 59.41246 25.03871 1939 ft 198 kts 271°
2026-05-06 15:06 59.41257 25.01315 1699 ft 177 kts 272°
2026-05-06 15:06 59.41267 24.99005 1450 ft 162 kts 271°
2026-05-06 15:07 59.41276 24.96841 1228 ft 155 kts 273°
2026-05-06 15:07 59.41285 24.94749 1017 ft 151 kts 274°
2026-05-06 15:07 59.41293 24.92709 807 ft 149 kts 271°
2026-05-06 15:07 59.41301 24.90701 582 ft 146 kts 272°
2026-05-06 15:08 59.41308 24.88739 397 ft 142 kts 273°
2026-05-06 15:08 59.41315 24.86819 208 ft 140 kts 274°
2026-05-06 15:08 59.41322 24.85051 163 ft 111 kts 269°
2026-05-06 15:08 59.41324 24.83868 164 ft 62 kts 270°
2026-05-06 15:09 59.41325 24.83180 163 ft 36 kts 269°
2026-05-06 15:09 59.41350 24.82761 161 ft 28 kts 287°
2026-05-06 15:09 59.41408 24.82509 161 ft 17 kts 299°
2026-05-06 15:09 59.41467 24.82315 162 ft 17 kts 301°
2026-05-06 15:10 59.41502 24.82099 162 ft 17 kts 272°
2026-05-06 15:10 59.41503 24.81857 162 ft 18 kts 270°
2026-05-06 15:10 59.41503 24.81603 162 ft 19 kts 270°
2026-05-06 15:10 59.41503 24.81337 162 ft 20 kts 270°
2026-05-06 15:11 59.41574 24.81181 162 ft 17 kts
2026-05-06 15:11 59.41665 24.81096 162 ft 16 kts 275°
2026-05-06 15:11 59.41665 24.80872 162 ft 17 kts 271°
2026-05-06 15:11 59.41666 24.80635 162 ft 18 kts 270°
2026-05-06 15:12 59.41728 24.80447 162 ft 16 kts 307°
2026-05-06 15:12 59.41748 24.80286 162 ft 5 kts 268°
2026-05-06 15:12 59.41726 24.80264 162 ft 2 kts 189°
2026-05-06 15:12 59.41706 24.80264 162 ft 4 kts 180°
2026-05-06 15:13 59.41693 24.80264 162 ft 1 kts 180°
2026-05-06 15:13 59.41691 24.80264 162 ft 0 kts 180°